Ada, OK

7:10 AM CDT on July 26, 2017 (GMT -0500)
Ada Municipal

Weather History for KADH - September, 2012

Change the Weather History Date:

Thursday, September 13, 2012

  Actual Average Record
Temperature  
Mean Temperature 66 °F -  
Max Temperature 73 °F 86 °F 104 °F (2011)
Min Temperature 59 °F 64 °F 50 °F (1960)
Cooling Degree Days 1    
Growing Degree Days 16 (Base 50)    
Moisture  
Dew Point 63 °F    
Average Humidity 88    
Maximum Humidity 100    
Minimum Humidity 64    
Precipitation  
Precipitation 0.27 in - - ()
Sea Level Pressure  
Sea Level Pressure 30.13 in    
Wind  
Wind Speed 8 mph (NNE)    
Max Wind Speed 13 mph    
Max Gust Speed 20 mph    
Visibility 10 miles    
Events Rain , Thunderstorm    
Averages and records for this station are not official NWS values.
T = Trace of Precipitation, MM = Missing Value Source: NWS Daily Summary

Daily Weather History Graph

Daily Weather History Graph

Search for Another Location

Airport or City:

Trip Planner

Search our weather history database for the weather conditions in past years. The results will help you decide how hot, cold, wet, or windy it might be!

Date:

Astronomy

Sep. 13, 2012 Rise Set
Actual Time 7:08 AM CDT 7:35 PM CDT
Civil Twilight 6:43 AM CDT 8:00 PM CDT
Nautical Twilight 6:13 AM CDT 8:30 PM CDT
Astronomical Twilight 5:43 AM CDT 9:00 PM CDT
Moon 4:33 AM CDT (9/13) 5:56 PM CDT (9/13)
Length of Visible Light 13h 17m
Length of Day
12h 27m
Waning Crescent, 7% of the Moon is Illuminated
Sep 13
Waning Crescent
Sep 15
New
Sep 22
First Quarter
Sep 29
Full
Oct 8
Last Quarter

Hourly Weather History & Observations

Time (CDT) Temp. Dew Point Humidity Pressure Visibility Wind Dir Wind Speed Gust Speed Precip Events Conditions
12:15 AM 71.6 °F 59.0 °F 64% 30.06 in 10.0 mi SE 10.4 mph - N/A   Clear
12:35 AM 71.6 °F 59.0 °F 64% 30.06 in 10.0 mi SE 11.5 mph - N/A   Clear
12:55 AM 71.6 °F 60.8 °F 69% 30.05 in 10.0 mi SE 12.7 mph - N/A   Clear
1:15 AM 71.6 °F 60.8 °F 69% 30.05 in 10.0 mi SSE 12.7 mph 19.6 mph N/A   Clear
1:35 AM 69.8 °F 60.8 °F 73% 30.05 in 10.0 mi SSE 9.2 mph - N/A   Clear
1:55 AM 69.8 °F 60.8 °F 73% 30.05 in 10.0 mi SE 11.5 mph - N/A   Clear
2:15 AM 69.8 °F 60.8 °F 73% 30.05 in 10.0 mi SE 9.2 mph - N/A   Clear
2:35 AM 69.8 °F 62.6 °F 78% 30.05 in 10.0 mi SE 9.2 mph - N/A   Clear
2:55 AM 69.8 °F 62.6 °F 78% 30.05 in 10.0 mi SE 9.2 mph - N/A   Clear
3:35 AM 69.8 °F 62.6 °F 78% 30.05 in 10.0 mi SE 10.4 mph - N/A   Clear
3:55 AM 68.0 °F 62.6 °F 83% 30.05 in 10.0 mi SE 9.2 mph - N/A   Clear
4:15 AM 68.0 °F 62.6 °F 83% 30.05 in 10.0 mi SE 8.1 mph - N/A   Clear
4:35 AM 68.0 °F 62.6 °F 83% 30.05 in 10.0 mi SE 8.1 mph - N/A   Clear
4:55 AM 68.0 °F 62.6 °F 83% 30.05 in 10.0 mi SE 8.1 mph - N/A   Clear
5:15 AM 68.0 °F 62.6 °F 83% 30.06 in 10.0 mi ESE 6.9 mph - N/A   Clear
5:35 AM 68.0 °F 64.4 °F 88% 30.07 in 10.0 mi SE 8.1 mph - N/A   Scattered Clouds
5:55 AM 68.0 °F 64.4 °F 88% 30.07 in 10.0 mi SE 5.8 mph - N/A   Scattered Clouds
6:15 AM 68.0 °F 64.4 °F 88% 30.09 in 10.0 mi Calm Calm - N/A   Scattered Clouds
6:35 AM 68.0 °F 64.4 °F 88% 30.10 in 10.0 mi Calm Calm - N/A   Clear
6:55 AM 68.0 °F 62.6 °F 83% 30.10 in 10.0 mi Calm Calm - N/A   Clear
7:15 AM 66.2 °F 62.6 °F 88% 30.11 in 10.0 mi Calm Calm - N/A   Clear
7:35 AM 66.2 °F 62.6 °F 88% 30.12 in 10.0 mi Calm Calm - N/A   Clear
7:55 AM 66.2 °F 62.6 °F 88% 30.11 in 10.0 mi North 8.1 mph - N/A   Scattered Clouds
8:15 AM 68.0 °F 62.6 °F 83% 30.11 in 10.0 mi NNE 5.8 mph - N/A   Clear
8:35 AM 68.0 °F 64.4 °F 88% 30.12 in 10.0 mi North 3.5 mph - N/A   Scattered Clouds
8:55 AM 69.8 °F 64.4 °F 83% 30.12 in 10.0 mi North 3.5 mph - N/A   Mostly Cloudy
9:15 AM 69.8 °F 64.4 °F 83% 30.12 in 10.0 mi Calm Calm - N/A   Mostly Cloudy
9:35 AM 71.6 °F 64.4 °F 78% 30.13 in 10.0 mi Calm Calm - N/A   Overcast
9:55 AM 71.6 °F 66.2 °F 83% 30.13 in 10.0 mi Calm Calm - N/A   Overcast
10:15 AM 71.6 °F 66.2 °F 83% 30.14 in 10.0 mi East 3.5 mph - N/A   Overcast
10:35 AM 73.4 °F 68.0 °F 83% 30.14 in 10.0 mi ESE 3.5 mph - N/A   Mostly Cloudy
10:55 AM 73.4 °F 68.0 °F 83% 30.15 in 10.0 mi Calm Calm - N/A   Mostly Cloudy
11:15 AM 73.4 °F 68.0 °F 83% 30.16 in 7.0 mi Calm Calm - N/A Thunderstorm Overcast
11:35 AM 73.4 °F 68.0 °F 83% 30.16 in 10.0 mi Calm Calm - N/A   Overcast
11:55 AM 73.4 °F 64.4 °F 73% 30.17 in 10.0 mi North 6.9 mph - N/A Thunderstorm Thunderstorm
12:15 PM 68.0 °F 66.2 °F 94% 30.18 in 5.0 mi NW 6.9 mph - 0.16 in Rain , Thunderstorm Light Thunderstorms and Rain
12:55 PM 68.0 °F 64.4 °F 88% 30.17 in 10.0 mi North 5.8 mph - 0.16 in Rain Light Rain
1:15 PM 66.2 °F 62.6 °F 88% 30.20 in 10.0 mi West 3.5 mph - N/A Rain Light Rain
1:35 PM 64.4 °F 60.8 °F 88% 30.19 in 10.0 mi WNW 6.9 mph - 0.01 in Rain Rain
1:55 PM 64.4 °F 62.6 °F 94% 30.18 in 10.0 mi NNW 8.1 mph - 0.02 in Rain Light Rain
2:15 PM 64.4 °F 62.6 °F 94% 30.17 in 10.0 mi North 9.2 mph - N/A   Mostly Cloudy
2:35 PM 64.4 °F 62.6 °F 94% 30.16 in 10.0 mi North 10.4 mph 16.1 mph N/A Rain Light Rain
2:55 PM 62.6 °F 62.6 °F 100% 30.13 in 10.0 mi North 10.4 mph - 0.01 in Rain Light Rain
3:15 PM 64.4 °F 62.6 °F 94% 30.14 in 10.0 mi North 10.4 mph 17.3 mph N/A   Clear
3:35 PM 64.4 °F 62.6 °F 94% 30.13 in 10.0 mi North 11.5 mph 19.6 mph N/A   Clear
3:55 PM 64.4 °F 62.6 °F 94% 30.13 in 10.0 mi North 10.4 mph - N/A   Clear
4:15 PM 64.4 °F 62.6 °F 94% 30.13 in 10.0 mi North 8.1 mph - N/A   Clear
4:35 PM 64.4 °F 62.6 °F 94% 30.14 in 10.0 mi NNW 10.4 mph - N/A   Clear
4:55 PM 66.2 °F 62.6 °F 88% 30.13 in 10.0 mi North 8.1 mph - N/A   Clear
5:15 PM 64.4 °F 62.6 °F 94% 30.14 in 10.0 mi NNW 5.8 mph - N/A   Clear
5:35 PM 64.4 °F 62.6 °F 94% 30.14 in 10.0 mi NNW 9.2 mph - N/A   Light Drizzle
5:55 PM 64.4 °F 62.6 °F 94% 30.15 in 10.0 mi NNW 9.2 mph - N/A Rain Light Rain
6:15 PM 64.4 °F 62.6 °F 94% 30.15 in 10.0 mi North 9.2 mph - N/A   Overcast
6:35 PM 64.4 °F 62.6 °F 94% 30.16 in 10.0 mi North 5.8 mph - N/A   Overcast
6:55 PM 64.4 °F 62.6 °F 94% 30.17 in 10.0 mi North 8.1 mph - N/A Rain Light Rain
7:15 PM 64.4 °F 62.6 °F 94% 30.17 in 10.0 mi North 8.1 mph - N/A Rain Light Rain
7:35 PM 62.6 °F 62.6 °F 100% 30.17 in 7.0 mi North 10.4 mph - 0.05 in Rain Light Rain
8:15 PM 60.8 °F 60.8 °F 100% 30.19 in 10.0 mi North 8.1 mph - N/A   Overcast
8:35 PM 60.8 °F 60.8 °F 100% 30.19 in 10.0 mi North 6.9 mph - N/A   Overcast
8:55 PM 60.8 °F 60.8 °F 100% 30.19 in 7.0 mi North 6.9 mph - 0.02 in Rain Light Rain
9:15 PM 60.8 °F 60.8 °F 100% 30.20 in 10.0 mi North 5.8 mph 17.3 mph N/A   Overcast
9:35 PM 60.8 °F 60.8 °F 100% 30.21 in 10.0 mi North 8.1 mph - N/A   Overcast
9:55 PM 60.8 °F 60.8 °F 100% 30.22 in 10.0 mi North 9.2 mph - N/A   Overcast
10:15 PM 60.8 °F 60.8 °F 100% 30.22 in 10.0 mi North 5.8 mph - N/A   Overcast
10:35 PM 60.8 °F 60.8 °F 100% 30.22 in 10.0 mi North 9.2 mph - N/A   Overcast
10:55 PM 60.8 °F 60.8 °F 100% 30.22 in 10.0 mi North 10.4 mph - N/A   Overcast
11:15 PM 60.8 °F 60.8 °F 100% 30.24 in 10.0 mi WNW 5.8 mph - N/A   Overcast
11:35 PM 59.0 °F 59.0 °F 100% 30.23 in 7.0 mi North 8.1 mph - N/A Rain Rain
11:55 PM 59.0 °F 59.0 °F 100% 30.23 in 7.0 mi North 8.1 mph - 0.01 in   Drizzle